Date,TemperatureHighF,TemperatureAvgF,TemperatureLowF,DewpointHighF,DewpointAvgF,DewpointLowF,HumidityHigh,HumidityAvg,HumidityLow,PressureMaxIn,PressureMinIn,WindSpeedMaxMPH,WindSpeedAvgMPH,GustSpeedMaxMPH,PrecipitationSumIn
2013-2-1,53,47,43,32,26,18,52,43,33,30.20,30.13,3,1,5,0.00
2013-2-2,55,49,42,32,26,19,66,41,30,30.22,30.11,3,0,4,0.01
2013-2-3,47,41,36,38,34,27,95,76,56,30.10,30.01,4,2,10,0.10
2013-2-4,52,45,39,34,27,18,62,49,34,30.13,30.02,5,1,12,0.00
2013-2-5,52,46,41,32,23,2,58,43,15,30.04,29.91,2,1,5,0.00
2013-2-6,49,42,35,27,18,-9,61,40,10,30.09,29.87,5,1,11,0.00
2013-2-7,48,41,30,36,23,11,95,54,28,30.09,29.82,6,2,10,0.00
2013-2-8,29,24,21,28,23,19,95,93,92,29.89,29.77,7,2,10,0.00
2013-2-9,29,24,20,27,22,18,94,93,92,30.17,29.90,2,0,5,0.00
2013-2-10,30,25,21,28,23,19,95,93,90,30.17,30.06,0,0,0,0.00
2013-2-11,30,25,20,24,15,6,94,69,42,30.35,30.09,7,1,14,0.00
2013-2-12,38,32,25,17,12,5,52,43,31,30.45,30.33,4,2,9,0.00
2013-2-13,45,39,32,22,18,11,50,42,30,30.36,30.21,4,2,9,0.06
2013-2-14,48,42,36,26,22,19,57,45,35,30.25,30.15,5,2,8,0.04
2013-2-15,55,45,38,26,13,-7,46,28,10,30.28,30.16,5,2,11,0.00
2013-2-16,57,49,42,22,-2,-28,28,15,3,30.27,29.95,4,1,5,0.00
2013-2-17,48,42,38,26,15,8,59,34,24,29.96,29.87,2,1,5,0.00
2013-2-18,49,41,35,30,20,10,79,43,30,30.00,29.88,6,2,6,0.00
2013-2-19,36,28,25,28,25,11,95,90,35,29.86,29.65,5,2,9,0.00
2013-2-20,30,24,17,29,22,15,95,93,91,30.09,29.62,7,2,13,0.00
2013-2-21,29,26,22,27,22,13,95,88,60,30.21,30.06,5,1,9,0.00
2013-2-22,41,33,22,26,16,8,78,52,38,30.32,30.21,4,1,7,0.00
2013-2-23,44,36,28,29,22,14,87,58,36,30.23,29.89,6,1,21,0.10
2013-2-24,35,29,23,11,2,-11,49,31,14,30.31,29.90,10,4,18,0.00
2013-2-25,45,38,29,18,6,-10,44,27,15,30.32,30.09,4,1,10,0.01
2013-2-26,46,38,30,20,11,0,54,34,19,30.17,29.97,8,3,16,0.00
2013-2-27,45,38,33,12,6,1,34,26,19,30.33,30.16,5,2,12,0.00
2013-2-28,52,44,37,20,12,4,39,27,21,30.38,30.31,5,1,8,0.00